Location: Unspecified
(52.4292°N, 19.3359°E)
Time: 00:57:32
(UTC+02:00)

Altair - Pass Details

Date: 22 May 2024
Orbit: 1502 x 1682 km, 47.2° (Epoch: 20 June)

Event Time Altitude Azimuth Distance (km) Brightness Sun altitude
Rises 10:11:45 0° 208° (SSW) 4,807 10.2 47.3°
Reaches altitude 10° 10:15:12 10° 200° (SSW) 3,849 9.9 47.7°
Maximum altitude 10:23:37 33° 141° (SE) 2,515 10.4 48.7°
Drops below altitude 10° 10:32:13 10° 82° (E) 3,943 10.2 49.7°
Sets 10:35:47 0° 74° (ENE) 4,939 10.4 50.2°
